Content
SEND FEEDBACK

Daily
Averages
Monthly
Summary
France

LE HAVRE, FRANCE


Home > Europe > France
Elevation: 338 feet     Latitude: 49 31N     Longitude: 000 04E

WEATHER
 
SELECT A DAY
Number of Records: 175,894;   Date Range: 3/4/97 - 7/20/14
 
SHARE

PRINT THIS DATA

[ ← Previous Day ]
WEATHER ALMANAC - FEBRUARY 20, 2013
[ Next Day → ]
[ °C ]   °F
Weather ElementAverageHighLow
Temperature36.5 °F44.6 °F (1:30 pm)32 °F (5:00 am)
Dewpoint31 °F35.6 °F (11:30 am)26.6 °F (10:30 pm)
Humidity81.5 %100 % (7:00 am)61 % (3:30 pm)
Barometer30.10 in30.15 in (8:30 pm)30.04 in (12:30 am)
Wind Speed9.2 mph16.1 mph (1:30 pm)
Weather ElementAverage
Visibility4.3 mi
Wind DirectionENE (81.5 °)

Weather ElementTotal
Precipitation---
Heating Degree Days26.7 (Base 65)
Averaged from 46 records on February 20, 2013
WEATHER CONDITIONS BREAKOUT
WIND DIRECTION BREAKOUT
WEATHER BY HOUR - FEBRUARY 20, 2013
[ °C ]   °F
Local TimeTemperatureDewpointHumidityBarometerVisibilityWind DirectionWind SpeedGust SpeedPrecipitationEventsConditions
12:30 AM35.6 °F30.2 °F81 %30.04 in3.7 miEast (80°)6.9 mph
1:30 AM35.6 °F30.2 °F81 %30.04 in3.7 miEast (100°)4.6 mph
2:00 AM35.6 °F30.2 °F81 %30.06 in3.7 miEast (100°)4.6 mph
2:30 AM35.6 °F30.2 °F81 %30.06 in3.1 miEast (90°)5.8 mphMist
3:00 AM33.8 °F30.2 °F87 %30.06 inEast (80°)5.8 mphMist
3:30 AM33.8 °F30.2 °F87 %30.06 inEast (90°)8.1 mphMist
4:00 AM33.8 °F32.0 °F93 %30.06 inEast (100°)5.8 mphMist
4:30 AM33.8 °F30.2 °F87 %30.06 inCalmMist
5:00 AM32.0 °F30.2 °F93 %30.06 in1.2 miEast (80°)3.5 mphMist
5:30 AM33.8 °F32.0 °F93 %30.06 inEast (80°)5.8 mphMist
6:00 AM32.0 °F30.2 °F93 %30.06 in1.7 miEast (80°)5.8 mphMist
6:30 AM32.0 °F30.2 °F93 %30.09 in1.0 miEast (80°)4.6 mphMist
7:00 AM32.0 °F32.0 °F100 %30.09 in1.0 miEast (90°)4.6 mphMist
7:30 AM32.0 °F30.2 °F93 %30.09 in0.9 miENE (70°)5.8 mphMist
8:00 AM32.0 °F30.2 °F93 %30.09 in0.9 miEast (80°)5.8 mphMist
8:30 AM32.0 °F30.2 °F93 %30.09 in0.7 miEast (90°)6.9 mphMist
9:00 AM32.0 °F32.0 °F100 %30.12 in0.9 miEast (90°)6.9 mphMist
9:30 AM33.8 °F32.0 °F93 %30.12 in1.0 miEast (80°)8.1 mphMist
10:00 AM32.0 °F30.2 °F93 %30.12 in1.1 miEast (80°)8.1 mphPartly Cloudy
10:30 AM33.8 °F32.0 °F93 %30.12 in1.2 miEast (80°)9.2 mphMist
11:00 AM37.4 °F33.8 °F87 %30.12 inEast (100°)9.2 mphMist
11:30 AM39.2 °F35.6 °F87 %30.12 in3.1 miEast (90°)12.7 mphPartly Cloudy
12:00 PM41.0 °F35.6 °F81 %30.12 in2.8 miEast (90°)13.8 mphMostly Cloudy
12:30 PM42.8 °F35.6 °F76 %30.12 in4.3 miEast (90°)11.5 mphPartly Cloudy
1:00 PM42.8 °F33.8 °F70 %30.12 in6.2 miEast (80°)13.8 mphMostly Cloudy
1:30 PM44.6 °F33.8 °F66 %30.12 in6.2 miEast (80°)16.1 mphOvercast
2:00 PM44.6 °F33.8 °F66 %30.09 in6.2 miEast (100°)13.8 mphMostly Cloudy
2:30 PM42.8 °F33.8 °F70 %30.12 in6.2 miENE (70°)15.0 mphScattered Clouds
3:00 PM42.8 °F32.0 °F66 %30.09 in6.2 miEast (80°)12.7 mphPartly Cloudy
3:30 PM44.6 °F32.0 °F61 %30.09 in6.2 miEast (90°)11.5 mphMostly Cloudy
4:00 PM44.6 °F32.0 °F61 %30.09 in6.2 miEast (90°)11.5 mphPartly Cloudy
4:30 PM42.8 °F32.0 °F66 %30.09 in6.2 miENE (70°)12.7 mphPartly Cloudy
5:00 PM42.8 °F32.0 °F66 %30.09 in6.2 miENE (70°)13.8 mphPartly Cloudy
5:30 PM41.0 °F32.0 °F70 %30.09 in6.2 miENE (70°)13.8 mph
6:00 PM39.2 °F32.0 °F75 %30.09 in6.2 miENE (70°)12.7 mph
6:30 PM39.2 °F30.2 °F70 %30.09 in6.2 miENE (70°)11.5 mph
7:00 PM37.4 °F30.2 °F75 %30.12 in6.2 miEast (80°)11.5 mph
7:30 PM35.6 °F30.2 °F81 %30.12 in6.2 miEast (80°)10.4 mph
8:00 PM35.6 °F28.4 °F75 %30.12 in6.2 miEast (90°)10.4 mph
8:30 PM33.8 °F28.4 °F81 %30.15 in6.2 miEast (90°)9.2 mph
9:00 PM33.8 °F28.4 °F81 %30.15 in6.2 miEast (80°)9.2 mph
9:30 PM33.8 °F28.4 °F81 %30.15 in6.2 miEast (80°)6.9 mph
10:00 PM32.0 °F28.4 °F87 %30.15 in6.2 miEast (80°)8.1 mph
10:30 PM32.0 °F26.6 °F80 %30.15 in6.2 miEast (80°)9.2 mph
11:00 PM32.0 °F26.6 °F80 %30.12 in6.2 miEast (80°)11.5 mph
11:30 PM32.0 °F26.6 °F80 %30.12 in6.2 miEast (80°)12.7 mph
Hourly data recorded from LFOH, located miles away from Le Havre, France







STORIES FROM OUR PARTNERS